"2009-10-19 00:00:00",1339486,3.261,99.3,6.262,0.43,19.99,109.0753,22.52,23.47,11,0,110.9,13.19,23.35,61.3
"2009-10-19 00:00:30",1339487,3.459,109.4,8.99,0.433,19.95,109.0756,22.52,23.48,11.01,0,110.9,13.19,23.35,71.4
"2009-10-19 00:01:00",1339488,3.833,111.3,5.595,0.26,19.96,109.0756,22.52,23.5,11,0,110.9,13.19,23.35,73.3
"2009-10-19 00:01:30",1339489,3.07,101.7,5.922,0.359,19.95,109.0756,22.52,23.49,11.01,0,110.9,13.19,23.35,63.7
"2009-10-19 00:02:00",1339490,2.639,87.3,8.42,0.285,19.9,109.0756,22.52,23.5,11.03,0,110.9,13.19,23.35,49.3
"2009-10-19 00:02:30",1339491,2.913,73.83,7.74,0.21,19.83,109.0778,22.53,23.52,11.09,0,110.9,13.19,23.36,35.8
"2009-10-19 00:03:00",1339492,2.59,96.4,10.36,0.287,19.82,109.0821,22.54,23.53,11.13,0,110.9,13.19,23.37,58.4
"2009-10-19 00:03:30",1339493,3.074,101,5.037,0.263,19.89,109.0848,22.54,23.52,11.13,0,110.9,13.19,23.37,63.0
"2009-10-19 00:04:00",1339494,3.165,102.8,7.92,0.184,19.91,109.0868,22.55,23.52,11.08,0,110.9,13.19,23.38,64.8
"2009-10-19 00:04:30",1339495,3.583,102.6,4.817,0.234,19.92,109.0865,22.55,23.54,11.08,0,110.9,13.19,23.38,64.6
"2009-10-19 00:05:00",1339496,3.387,89.3,6.655,0.206,19.89,109.0871,22.55,23.55,11.14,0,110.9,13.19,23.38,51.3
"2009-10-19 00:05:30",1339497,3.864,81.8,1.486,0.21,19.79,109.088,22.55,23.55,11.31,0,110.9,13.19,23.38,43.8
"2009-10-19 00:06:00",1339498,4.044,89.6,3.354,0.274,19.84,109.0863,22.55,23.54,11.39,0,110.9,13.19,23.38,51.6
"2009-10-19 00:06:30",1339499,5.02,105,5.767,0.338,19.61,109.0806,22.53,23.55,11.49,0,110.9,13.19,23.36,67.0
"2009-10-19 00:07:00",1339500,5.354,112.6,1.986,0.196,19.66,109.0759,22.52,23.55,11.59,0,110.9,13.19,23.35,74.6
"2009-10-19 00:07:30",1339501,5.56,108.4,2.522,0.213,19.77,109.0756,22.52,23.54,11.56,0,110.9,13.19,23.35,70.4
"2009-10-19 00:08:00",1339502,4.817,119,11.62,1.024,19.59,109.0699,22.51,23.54,11.59,0,110.9,13.19,23.34,81.0
"2009-10-19 00:08:30",1339503,4.595,128.3,9.86,0.408,19.61,109.0435,22.44,23.52,11.66,0,110.9,13.18,23.27,90.3
"2009-10-19 00:09:00",1339504,5.357,134.9,4.452,0.42,19.58,109.0379,22.42,23.49,11.72,0,110.9,13.18,23.25,96.9
"2009-10-19 00:09:30",1339505,5.109,137.8,2.499,0.524,19.69,109.0101,22.35,23.47,11.73,0,110.9,13.18,23.18,99.8
"2009-10-19 00:10:00",1339506,4.462,141.1,5.671,0.658,19.77,108.9997,22.33,23.44,11.64,0,110.9,13.18,23.16,103.1
"2009-10-19 00:10:30",1339507,3.407,150.4,11.24,0.297,19.86,108.9752,22.26,23.39,11.59,0,110.9,13.18,23.09,112.4
"2009-10-19 00:11:00",1339508,3.431,157.7,2.585,0.189,19.9,108.969,22.25,23.38,11.55,0,110.9,13.18,23.08,119.7
"2009-10-19 00:11:30",1339509,3.16,153,7.75,0.302,19.82,108.9492,22.2,23.33,11.59,0,110.9,13.18,23.03,115.0
"2009-10-19 00:12:00",1339510,4.134,140.5,3.839,0.233,19.78,108.9421,22.18,23.31,11.72,0,110.9,13.18,23.01,102.5
"2009-10-19 00:12:30",1339511,4.059,136.6,3.622,0.299,19.82,108.9314,22.15,23.28,11.86,0,110.9,13.19,22.98,98.6
"2009-10-19 00:13:00",1339512,3.993,131.1,2.823,0.178,19.8,108.9132,22.1,23.24,11.96,0,110.9,13.19,22.93,93.1
"2009-10-19 00:13:30",1339513,4.162,133.5,1.5,0.167,19.84,108.9065,22.09,23.22,12.04,0,110.9,13.19,22.92,95.5
"2009-10-19 00:14:00",1339514,4.273,132.4,1.476,0.112,19.91,108.8899,22.04,23.19,12.05,0,110.9,13.19,22.87,94.4
"2009-10-19 00:14:30",1339515,3.615,134.8,4.631,0.233,19.88,108.8765,22.01,23.16,12.04,0,110.9,13.19,22.84,96.8
"2009-10-19 00:15:00",1339516,3.538,137.6,1.275,0.233,19.8,108.8734,22,23.13,12.05,0,110.9,13.19,22.83,99.6
"2009-10-19 00:15:30",1339517,3.849,140.2,2.315,0.114,19.7,108.8484,21.94,23.09,12.27,0,110.9,13.19,22.77,102.2
"2009-10-19 00:16:00",1339518,3.763,139.7,1.6,0.105,19.83,108.8483,21.94,23.07,12.22,0,110.9,13.2,22.77,101.7
"2009-10-19 00:16:30",1339519,3.267,144,6.505,0.399,19.81,108.8484,21.94,23.04,12.19,0,110.9,13.2,22.77,106.0
"2009-10-19 00:17:00",1339520,3.654,150.4,3.191,0.122,19.92,108.8215,21.87,23.02,12.15,0,110.9,13.2,22.70,112.4
"2009-10-19 00:17:30",1339521,3.599,140.7,4.752,0.177,19.98,108.8167,21.86,22.99,12.02,0,110.9,13.2,22.68,102.7
"2009-10-19 00:18:00",1339522,3.084,138,2.463,0.163,20.01,108.8225,21.87,22.95,11.98,0,110.9,13.2,22.70,100.0
"2009-10-19 00:18:30",1339523,3.407,142.6,1.349,0.333,19.97,108.8168,21.86,22.95,11.99,0,110.9,13.2,22.68,104.6
"2009-10-19 00:19:00",1339524,3.704,141.1,2.36,0.117,19.99,108.7997,21.81,22.92,12.01,0,110.9,13.2,22.64,103.1
"2009-10-19 00:19:30",1339525,3.638,140.2,3.638,0.106,19.9,108.7948,21.8,22.89,12.03,0,110.9,13.2,22.63,102.2
"2009-10-19 00:20:00",1339526,3.845,144.3,2.016,0.245,19.84,108.7976,21.81,22.89,12.06,0,110.9,13.2,22.63,106.3
"2009-10-19 00:20:30",1339527,3.94,147.5,2.54,0.129,19.88,108.7995,21.81,22.86,12.03,0,110.9,13.2,22.64,109.5
"2009-10-19 00:21:00",1339528,3.98,150.4,1.127,0.076,19.93,108.7897,21.79,22.84,12.02,0,110.9,13.2,22.61,112.4
"2009-10-19 00:21:30",1339529,3.816,149.2,1.513,0.072,19.78,108.774,21.75,22.82,12.11,0,110.9,13.2,22.57,111.2
"2009-10-19 00:22:00",1339530,3.828,147.7,1.398,0.13,19.84,108.7675,21.73,22.81,12.18,0,110.9,13.2,22.56,109.7
"2009-10-19 00:22:30",1339531,3.785,144.5,1.462,0.076,19.88,108.7685,21.73,22.79,12.21,0,110.9,13.2,22.56,106.5
"2009-10-19 00:23:00",1339532,3.925,139.2,1.87,0.142,19.93,108.7718,21.74,22.77,12.19,0,110.9,13.2,22.57,101.2
"2009-10-19 00:23:30",1339533,3.88,138.4,1.342,0.138,19.94,108.7734,21.74,22.75,12.21,0,110.9,13.2,22.57,100.4
"2009-10-19 00:24:00",1339534,4.215,138.7,1.319,0.105,19.87,108.762,21.72,22.75,12.24,0,110.9,13.2,22.54,100.7
"2009-10-19 00:24:30",1339535,4.258,135.5,1.3,0.067,19.95,108.7498,21.68,22.73,12.22,0,110.9,13.2,22.51,97.5
"2009-10-19 00:25:00",1339536,4.296,132.1,1.131,0.053,19.99,108.7436,21.67,22.71,12.22,0,110.9,13.2,22.50,94.1
"2009-10-19 00:25:30",1339537,4.223,131.4,1.239,0.096,19.89,108.7411,21.66,22.7,12.29,0,110.9,13.2,22.49,93.4
"2009-10-19 00:26:00",1339538,4.44,135.6,1.549,0.113,19.82,108.7411,21.66,22.69,12.29,0,110.9,13.2,22.49,97.6
"2009-10-19 00:26:30",1339539,4.31,136.6,1.46,0.079,19.83,108.7411,21.66,22.68,12.33,0,110.9,13.2,22.49,98.6
"2009-10-19 00:27:00",1339540,4.126,133.5,1.207,0.098,19.91,108.7411,21.66,22.67,12.27,0,110.9,13.2,22.49,95.5
"2009-10-19 00:27:30",1339541,4.029,133.2,0.965,0.121,19.91,108.7406,21.66,22.67,12.23,0,110.9,13.2,22.49,95.2
"2009-10-19 00:28:00",1339542,3.996,133.6,1.608,0.106,19.91,108.7389,21.66,22.66,12.24,0,110.9,13.2,22.48,95.6
"2009-10-19 00:28:30",1339543,3.593,137.3,0.68,0.098,19.81,108.7383,21.65,22.64,12.29,0,110.9,13.2,22.48,99.3
"2009-10-19 00:29:00",1339544,3.711,134.7,2.659,0.131,19.89,108.7355,21.65,22.62,12.31,0,110.9,13.2,22.47,96.7
"2009-10-19 00:29:30",1339545,3.585,136.1,1.006,0.077,19.83,108.7245,21.62,22.62,12.25,0,110.9,13.2,22.45,98.1
"2009-10-19 00:30:00",1339546,3.58,134.6,0.895,0.065,19.93,108.7189,21.6,22.63,12.16,0,110.9,13.2,22.43,96.6
"2009-10-19 00:30:30",1339547,3.605,134.4,0.987,0.04,19.99,108.7158,21.6,22.62,12.13,0,110.9,13.2,22.42,96.4
"2009-10-19 00:31:00",1339548,3.332,137.9,1.631,0.126,19.96,108.7144,21.59,22.62,12.13,0,110.9,13.21,22.42,99.9
"2009-10-19 00:31:30",1339549,3.303,137.8,1.033,0.052,20.01,108.7113,21.59,22.61,12.14,0,110.9,13.21,22.41,99.8
"2009-10-19 00:32:00",1339550,3.283,136.1,1.034,0.055,20.01,108.7102,21.58,22.6,12.13,0,110.9,13.21,22.41,98.1
"2009-10-19 00:32:30",1339551,3.143,137.1,0.814,0.102,20.04,108.7077,21.58,22.61,12.21,0,110.9,13.21,22.40,99.1
"2009-10-19 00:33:00",1339552,3.01,137.5,0.696,0.022,20.1,108.7074,21.57,22.59,12.17,0,110.9,13.21,22.40,99.5
"2009-10-19 00:33:30",1339553,3.245,135.3,1.842,0.111,19.9,108.7074,21.57,22.59,12.21,0,110.9,13.21,22.40,97.3
"2009-10-19 00:34:00",1339554,3.62,132.1,1.593,0.126,19.89,108.7074,21.57,22.6,12.31,0,110.9,13.21,22.40,94.1
"2009-10-19 00:34:30",1339555,3.674,132.5,2.473,0.122,19.87,108.7074,21.57,22.59,12.34,0,110.9,13.21,22.40,94.5
"2009-10-19 00:35:00",1339556,3.314,136.1,2.665,0.102,19.86,108.7074,21.57,22.57,12.32,0,110.9,13.21,22.40,98.1
"2009-10-19 00:35:30",1339557,3.762,130.2,4.525,0.208,19.9,108.7074,21.57,22.58,12.33,0,110.8,13.21,22.40,92.2
"2009-10-19 00:36:00",1339558,3.736,131.1,1.738,0.107,19.89,108.7074,21.57,22.56,12.33,0,110.8,13.21,22.40,93.1
"2009-10-19 00:36:30",1339559,3.632,133.6,2.908,0.121,19.8,108.7074,21.57,22.57,12.33,0,110.8,13.21,22.40,95.6
"2009-10-19 00:37:00",1339560,3.537,127.1,2.997,0.109,19.84,108.7074,21.57,22.56,12.33,0,110.8,13.21,22.40,89.1
"2009-10-19 00:37:30",1339561,3.752,129.4,2.134,0.161,19.89,108.7068,21.57,22.57,12.33,0,110.8,13.21,22.40,91.4
"2009-10-19 00:38:00",1339562,3.862,128.2,1.075,0.041,19.98,108.7054,21.57,22.56,12.33,0,110.8,13.21,22.40,90.2
"2009-10-19 00:38:30",1339563,3.893,126.7,2.32,0.098,19.92,108.6984,21.55,22.57,12.31,0,110.8,13.21,22.38,88.7
"2009-10-19 00:39:00",1339564,4.033,122.9,2.181,0.095,19.9,108.6945,21.54,22.57,12.31,0,110.8,13.21,22.37,84.9
"2009-10-19 00:39:30",1339565,3.726,122.1,1.956,0.117,19.93,108.6883,21.53,22.56,12.29,0,110.8,13.21,22.35,84.1
"2009-10-19 00:40:00",1339566,3.706,124.7,1.498,0.111,19.87,108.686,21.52,22.54,12.29,0,110.8,13.21,22.35,86.7
"2009-10-19 00:40:30",1339567,3.786,121.1,1.657,0.095,20,108.6835,21.51,22.54,12.29,0,110.8,13.21,22.34,83.1
"2009-10-19 00:41:00",1339568,3.925,118.6,1.387,0.11,19.93,108.6826,21.51,22.56,12.28,0,110.8,13.21,22.34,80.6
"2009-10-19 00:41:30",1339569,4.004,122.1,2.085,0.112,19.92,108.683,21.51,22.54,12.3,0,110.8,13.21,22.34,84.1
"2009-10-19 00:42:00",1339570,4.082,121.5,1.865,0.121,19.91,108.6836,21.51,22.56,12.29,0,110.8,13.21,22.34,83.5
"2009-10-19 00:42:30",1339571,3.829,124.2,0.895,0.089,19.89,108.6867,21.52,22.54,12.27,0,110.8,13.21,22.35,86.2
"2009-10-19 00:43:00",1339572,4.093,125.3,1.305,0.242,19.97,108.6873,21.52,22.54,12.28,0,110.8,13.21,22.35,87.3
"2009-10-19 00:43:30",1339573,4.279,123.1,1.977,0.101,19.96,108.6892,21.53,22.55,12.29,0,110.8,13.21,22.36,85.1
"2009-10-19 00:44:00",1339574,4.118,123,1.889,0.114,19.91,108.6968,21.55,22.54,12.3,0,110.8,13.21,22.37,85.0
"2009-10-19 00:44:30",1339575,4.021,122,2.911,0.119,19.93,108.6965,21.55,22.54,12.31,0,110.8,13.21,22.37,84.0
"2009-10-19 00:45:00",1339576,3.972,118.6,1.783,0.123,19.97,108.7016,21.56,22.53,12.31,0,110.8,13.21,22.39,80.6
"2009-10-19 00:45:30",1339577,4.395,118.5,2.466,0.081,19.94,108.7013,21.56,22.54,12.28,0,110.8,13.21,22.39,80.5
"2009-10-19 00:46:00",1339578,4.271,121.9,2.872,0.129,19.98,108.704,21.57,22.55,12.26,0,110.8,13.21,22.39,83.9
"2009-10-19 00:46:30",1339579,4.226,121.2,2.108,0.064,19.96,108.7086,21.58,22.55,12.25,0,110.8,13.21,22.41,83.2
"2009-10-19 00:47:00",1339580,4.377,120.9,1.074,0.214,19.93,108.7086,21.58,22.54,12.25,0,110.8,13.21,22.41,82.9
"2009-10-19 00:47:30",1339581,4.501,123.7,1.824,0.167,19.98,108.7122,21.59,22.55,12.27,0,110.8,13.21,22.41,85.7
"2009-10-19 00:48:00",1339582,4.452,124.6,1.436,0.142,19.97,108.7145,21.59,22.55,12.3,0,110.8,13.21,22.42,86.6
"2009-10-19 00:48:30",1339583,4.372,123.4,1.418,0.145,19.99,108.7206,21.61,22.54,12.31,0,110.8,13.21,22.44,85.4
"2009-10-19 00:49:00",1339584,4.69,122.4,1.466,0.142,20.01,108.7223,21.61,22.56,12.26,0,110.8,13.21,22.44,84.4
"2009-10-19 00:49:30",1339585,4.78,121.3,1.869,0.068,19.96,108.725,21.62,22.55,12.27,0,110.8,13.21,22.45,83.3
"2009-10-19 00:50:00",1339586,4.654,120.7,1.519,0.103,19.97,108.7299,21.63,22.56,12.27,0,110.8,13.21,22.46,82.7
"2009-10-19 00:50:30",1339587,4.842,122.3,1.95,0.108,19.91,108.7318,21.64,22.55,12.29,0,110.8,13.21,22.47,84.3
"2009-10-19 00:51:00",1339588,4.772,119.9,1.805,0.122,19.92,108.7352,21.65,22.57,12.31,0,110.8,13.21,22.47,81.9
"2009-10-19 00:51:30",1339589,4.874,120.8,2.934,0.137,19.91,108.7359,21.65,22.57,12.33,0,110.8,13.21,22.48,82.8
"2009-10-19 00:52:00",1339590,5.145,119.5,2.308,0.116,19.87,108.7367,21.65,22.58,12.36,0,110.8,13.21,22.48,81.5
"2009-10-19 00:52:30",1339591,5.145,119.4,1.542,0.116,19.9,108.7383,21.65,22.57,12.37,0,110.8,13.21,22.48,81.4
"2009-10-19 00:53:00",1339592,5.201,122.4,1.246,0.198,19.89,108.7386,21.65,22.58,12.36,0,110.8,13.22,22.48,84.4
"2009-10-19 00:53:30",1339593,5.244,119.3,1.395,0.133,19.88,108.7383,21.65,22.57,12.36,0,110.8,13.22,22.48,81.3
"2009-10-19 00:54:00",1339594,5.203,116.8,0.848,0.096,19.85,108.7416,21.66,22.6,12.37,0,110.8,13.22,22.49,78.8
"2009-10-19 00:54:30",1339595,5.363,117.2,1.249,0.082,19.85,108.741,21.66,22.59,12.37,0,110.8,13.22,22.49,79.2
"2009-10-19 00:55:00",1339596,5.309,118.7,2.871,0.14,19.84,108.7426,21.67,22.59,12.41,0,110.8,13.22,22.49,80.7
"2009-10-19 00:55:30",1339597,5.326,120.9,3.476,0.107,19.85,108.741,21.66,22.59,12.39,0,110.8,13.22,22.49,82.9
"2009-10-19 00:56:00",1339598,5.376,118.7,1.328,0.114,19.86,108.7429,21.67,22.59,12.39,0,110.8,13.22,22.49,80.7
"2009-10-19 00:56:30",1339599,5.62,117.1,1.252,0.084,19.83,108.7435,21.67,22.6,12.39,0,110.8,13.22,22.50,79.1
"2009-10-19 00:57:00",1339600,5.602,116.4,0.938,0.107,19.82,108.7426,21.67,22.6,12.42,0,110.8,13.22,22.49,78.4
"2009-10-19 00:57:30",1339601,5.675,117.5,2.474,0.127,19.79,108.7438,21.67,22.61,12.48,0,110.8,13.22,22.50,79.5
"2009-10-19 00:58:00",1339602,5.745,121.4,3.213,0.294,19.79,108.7441,21.67,22.6,12.54,0,110.8,13.21,22.50,83.4
"2009-10-19 00:58:30",1339603,5.33,121.3,2.569,0.267,19.77,108.7441,21.67,22.62,12.57,0,110.8,13.21,22.50,83.3
"2009-10-19 00:59:00",1339604,5.947,118.8,2.086,0.165,19.72,108.7441,21.67,22.6,12.66,0,110.8,13.21,22.50,80.8
"2009-10-19 00:59:30",1339605,5.763,116.6,1.563,0.166,19.7,108.7441,21.67,22.61,12.69,0,110.8,13.21,22.50,78.6
"2009-10-19 01:00:00",1339606,5.723,121.7,2.067,0.162,19.81,108.7441,21.67,22.61,12.66,0,110.8,13.21,22.50,83.7
"2009-10-19 01:00:30",1339607,5.283,120,3.623,0.245,19.77,108.7438,21.67,22.61,12.65,0,110.8,13.21,22.50,82.0
"2009-10-19 01:01:00",1339608,5.58,118.3,2.407,0.264,19.75,108.7424,21.66,22.6,12.68,0,110.8,13.21,22.49,80.3
"2009-10-19 01:01:30",1339609,5.722,122.9,3.261,0.185,19.72,108.7359,21.65,22.59,12.77,0,110.8,13.21,22.48,84.9
"2009-10-19 01:02:00",1339610,5.97,123.5,2.477,0.227,19.72,108.7244,21.62,22.6,12.85,0,110.8,13.21,22.45,85.5
"2009-10-19 01:02:30",1339611,5.758,119.5,3.024,0.216,19.73,108.7185,21.6,22.59,12.83,0,110.8,13.21,22.43,81.5
"2009-10-19 01:03:00",1339612,5.704,122.5,2.323,0.219,19.76,108.7131,21.59,22.59,12.82,0,110.8,13.21,22.42,84.5
"2009-10-19 01:03:30",1339613,5.851,119.8,1.203,0.202,19.77,108.7109,21.58,22.58,12.82,0,110.8,13.21,22.41,81.8
"2009-10-19 01:04:00",1339614,5.706,120.4,0.84,0.088,19.75,108.7103,21.58,22.56,12.79,0,110.8,13.22,22.41,82.4
"2009-10-19 01:04:30",1339615,5.846,120.5,1.397,0.213,19.72,108.7103,21.58,22.57,12.78,0,110.8,13.22,22.41,82.5
"2009-10-19 01:05:00",1339616,5.837,122,1.241,0.087,19.66,108.7103,21.58,22.57,12.86,0,110.8,13.22,22.41,84.0
"2009-10-19 01:05:30",1339617,5.887,120.8,1.219,0.106,19.63,108.7103,21.58,22.56,12.88,0,110.8,13.22,22.41,82.8
"2009-10-19 01:06:00",1339618,5.839,120.1,1.239,0.151,19.62,108.7095,21.58,22.55,13.01,0,110.8,13.22,22.41,82.1
"2009-10-19 01:06:30",1339619,5.937,122.6,2.211,0.089,19.73,108.7044,21.57,22.53,12.96,0,110.8,13.22,22.39,84.6
"2009-10-19 01:07:00",1339620,5.71,119.9,1.221,0.075,19.72,108.6996,21.56,22.53,12.95,0,110.8,13.22,22.38,81.9
"2009-10-19 01:07:30",1339621,5.605,118.9,0.909,0.129,19.75,108.6858,21.52,22.53,12.97,0,110.8,13.22,22.35,80.9
"2009-10-19 01:08:00",1339622,5.632,120.1,1.054,0.126,19.75,108.6771,21.5,22.53,12.97,0,110.8,13.23,22.32,82.1
"2009-10-19 01:08:30",1339623,5.899,121.4,0.91,0.177,19.77,108.6766,21.5,22.52,12.92,0,110.8,13.23,22.32,83.4
"2009-10-19 01:09:00",1339624,6.092,123.2,0.928,0.091,19.84,108.6766,21.5,22.49,12.83,0,110.8,13.23,22.32,85.2
"2009-10-19 01:09:30",1339625,6.108,124.7,1.112,0.139,19.77,108.6766,21.5,22.49,12.81,0,110.8,13.23,22.32,86.7
"2009-10-19 01:10:00",1339626,6.071,122.4,1.249,0.134,19.77,108.6766,21.5,22.48,12.84,0,110.8,13.23,22.32,84.4
"2009-10-19 01:10:30",1339627,6.155,119.5,0.87,0.111,19.59,108.6763,21.5,22.48,12.93,0,110.8,13.23,22.32,81.5
"2009-10-19 01:11:00",1339628,6.149,118.4,1.566,0.093,19.58,108.6766,21.5,22.48,13.06,0,110.8,13.23,22.32,80.4
"2009-10-19 01:11:30",1339629,6.054,120.3,1.359,0.079,19.7,108.6766,21.5,22.49,13.03,0,110.8,13.23,22.32,82.3
"2009-10-19 01:12:00",1339630,6.27,121.2,1.042,0.109,19.75,108.676,21.49,22.47,12.91,0,110.8,13.23,22.32,83.2
"2009-10-19 01:12:30",1339631,6.122,123,1.49,0.076,19.73,108.6707,21.48,22.46,12.92,0,110.8,13.23,22.31,85.0
"2009-10-19 01:13:00",1339632,5.98,122.4,1.991,0.12,19.73,108.6639,21.46,22.46,12.94,0,110.8,13.23,22.29,84.4
"2009-10-19 01:13:30",1339633,6.184,121.7,1.378,0.125,19.75,108.6583,21.45,22.45,12.95,0,110.8,13.23,22.28,83.7
"2009-10-19 01:14:00",1339634,6.167,121.8,1.217,0.099,19.73,108.6538,21.44,22.46,12.96,0,110.8,13.23,22.26,83.8
"2009-10-19 01:14:30",1339635,6.213,121.1,1.536,0.108,19.66,108.6518,21.43,22.44,13.04,0,110.8,13.23,22.26,83.1
"2009-10-19 01:15:00",1339636,5.984,122.3,2.42,0.147,19.76,108.6507,21.43,22.44,12.98,0,110.8,13.22,22.26,84.3
"2009-10-19 01:15:30",1339637,5.85,124.5,3.494,0.278,19.74,108.6507,21.43,22.44,12.9,0,110.8,13.22,22.26,86.5
"2009-10-19 01:16:00",1339638,5.967,124,3.318,0.174,19.75,108.6476,21.42,22.44,12.95,0,110.8,13.22,22.25,86.0
"2009-10-19 01:16:30",1339639,6.136,119.9,0.692,0.156,19.58,108.6456,21.42,22.43,13.14,0,110.8,13.22,22.24,81.9
"2009-10-19 01:17:00",1339640,6.196,119.3,0.426,0.114,19.54,108.6431,21.41,22.44,13.2,0,110.8,13.22,22.24,81.3
"2009-10-19 01:17:30",1339641,6.078,119.1,0.75,0.048,19.6,108.6428,21.41,22.42,13.24,0,110.8,13.22,22.24,81.1
"2009-10-19 01:18:00",1339642,6.114,118.9,0.81,0.041,19.6,108.6428,21.41,22.43,13.18,0,110.8,13.22,22.24,80.9
"2009-10-19 01:18:30",1339643,6.039,119.9,0.926,0.059,19.66,108.6428,21.41,22.42,13.13,0,110.8,13.22,22.24,81.9
"2009-10-19 01:19:00",1339644,6,119.8,0.596,0.067,19.58,108.6428,21.41,22.42,13.2,0,110.8,13.22,22.24,81.8
"2009-10-19 01:19:30",1339645,6.012,120.3,0.76,0.047,19.58,108.6428,21.41,22.4,13.22,0,110.8,13.22,22.24,82.3
"2009-10-19 01:20:00",1339646,6.046,119.5,0.634,0.069,19.66,108.6428,21.41,22.4,13.1,0,110.8,13.22,22.24,81.5
"2009-10-19 01:20:30",1339647,6.023,119.6,0.65,0.06,19.53,108.6425,21.41,22.41,13.33,0,110.8,13.22,22.24,81.6
"2009-10-19 01:21:00",1339648,5.923,119.4,0.713,0.063,19.54,108.642,21.41,22.39,13.4,0,110.8,13.23,22.23,81.4
"2009-10-19 01:21:30",1339649,6.158,118.4,0.577,0.071,19.52,108.6349,21.39,22.4,13.46,0,110.8,13.23,22.22,80.4
"2009-10-19 01:22:00",1339650,6.128,119,0.04,0.048,19.53,108.6276,21.37,22.38,13.5,0,110.8,13.23,22.20,81.0
"2009-10-19 01:22:30",1339651,6.101,118.9,0.27,0.035,19.54,108.6135,21.33,22.38,13.48,0,110.8,13.23,22.16,80.9
"2009-10-19 01:23:00",1339652,6.026,119.4,0.71,0.056,19.63,108.609,21.32,22.36,13.44,0,110.8,13.23,22.15,81.4
"2009-10-19 01:23:30",1339653,6.081,119.7,0.815,0.142,19.55,108.609,21.32,22.36,13.5,0,110.8,13.23,22.15,81.7
"2009-10-19 01:24:00",1339654,6.009,119.1,0.508,0.042,19.64,108.609,21.32,22.35,13.51,0,110.8,13.23,22.15,81.1
"2009-10-19 01:24:30",1339655,6.101,120.3,0.696,0.091,19.61,108.609,21.32,22.35,13.52,0,110.8,13.23,22.15,82.3
"2009-10-19 01:25:00",1339656,6.227,120.7,0.27,0.068,19.63,108.6079,21.32,22.34,13.45,0,110.8,13.23,22.15,82.7
"2009-10-19 01:25:30",1339657,6.099,120,0.473,0.043,19.58,108.5961,21.29,22.33,13.5,0,110.8,13.23,22.12,82.0
"2009-10-19 01:26:00",1339658,6.151,121.4,1.333,0.074,19.71,108.584,21.26,22.32,13.32,0,110.8,13.23,22.08,83.4
"2009-10-19 01:26:30",1339659,6.197,122.4,0.977,0.103,19.9,108.5832,21.26,22.3,13.09,0,110.8,13.23,22.08,84.4
"2009-10-19 01:27:00",1339660,6.2,120.2,0.653,0.071,19.69,108.5823,21.25,22.29,13.1,0,110.8,13.23,22.08,82.2
"2009-10-19 01:27:30",1339661,6.296,120.3,0.871,0.102,19.74,108.5812,21.25,22.28,13.17,0,110.8,13.23,22.08,82.3
"2009-10-19 01:28:00",1339662,6.477,124.9,2.099,0.149,19.8,108.5815,21.25,22.29,13.11,0,110.8,13.23,22.08,86.9
"2009-10-19 01:28:30",1339663,6.328,126.8,1.433,0.118,19.81,108.5835,21.26,22.3,13.06,0,110.8,13.23,22.08,88.8
"2009-10-19 01:29:00",1339664,6.223,126.3,1.431,0.2,19.75,108.5843,21.26,22.29,13.1,0,110.8,13.23,22.09,88.3
"2009-10-19 01:29:30",1339665,6.329,128.8,2.952,0.189,19.83,108.5877,21.27,22.28,13.03,0,110.8,13.23,22.09,90.8
"2009-10-19 01:30:00",1339666,5.934,132.1,1.675,0.186,19.86,108.5995,21.3,22.29,12.95,0,110.8,13.23,22.12,94.1
"2009-10-19 01:30:30",1339667,5.993,125.4,1.146,0.115,19.77,108.6085,21.32,22.28,12.98,0,110.8,13.23,22.15,87.4
"2009-10-19 01:31:00",1339668,6.121,124,1.26,0.048,19.74,108.6094,21.32,22.29,13.02,0,110.8,13.23,22.15,86.0
"2009-10-19 01:31:30",1339669,6.131,126,1.086,0.087,19.73,108.6094,21.32,22.3,13.02,0,110.8,13.23,22.15,88.0
"2009-10-19 01:32:00",1339670,5.924,127.5,1.887,0.159,19.75,108.6094,21.32,22.3,13.03,0,110.8,13.23,22.15,89.5
"2009-10-19 01:32:30",1339671,5.915,128.7,1.87,0.161,19.83,108.6094,21.32,22.3,12.98,0,110.8,13.23,22.15,90.7
"2009-10-19 01:33:00",1339672,5.881,125.6,1.085,0.156,19.79,108.6103,21.33,22.31,12.95,0,110.8,13.23,22.15,87.6
"2009-10-19 01:33:30",1339673,5.941,128.9,1.39,0.128,19.83,108.6109,21.33,22.31,12.92,0,110.8,13.23,22.15,90.9
"2009-10-19 01:34:00",1339674,6.01,125.4,2.186,0.087,19.78,108.6109,21.33,22.31,12.97,0,110.8,13.23,22.15,87.4
"2009-10-19 01:34:30",1339675,6.122,124.1,0.657,0.058,19.81,108.6123,21.33,22.33,13,0,110.8,13.23,22.16,86.1
"2009-10-19 01:35:00",1339676,6.073,122.8,1.044,0.038,19.81,108.6199,21.35,22.33,12.97,0,110.8,13.23,22.18,84.8
"2009-10-19 01:35:30",1339677,6.024,121.4,0.779,0.099,19.66,108.6286,21.37,22.33,13.08,0,110.8,13.23,22.20,83.4
"2009-10-19 01:36:00",1339678,6.033,120.9,0.908,0.06,19.65,108.6293,21.37,22.33,13.17,0,110.8,13.23,22.20,82.9
"2009-10-19 01:36:30",1339679,5.884,121.7,1.114,0.134,19.74,108.6306,21.38,22.34,13.1,0,110.8,13.23,22.20,83.7
"2009-10-19 01:37:00",1339680,5.818,120.7,0.813,0.063,19.69,108.639,21.4,22.35,13.06,0,110.8,13.23,22.23,82.7
"2009-10-19 01:37:30",1339681,5.892,120.4,0.811,0.065,19.67,108.6405,21.4,22.34,13.02,0,110.8,13.23,22.23,82.4
"2009-10-19 01:38:00",1339682,5.896,118.8,0.396,0.046,19.77,108.6416,21.41,22.35,13.08,0,110.8,13.23,22.23,80.8
"2009-10-19 01:38:30",1339683,5.934,118.5,0.541,0.042,19.82,108.6415,21.41,22.36,13.11,0,110.8,13.23,22.23,80.5
"2009-10-19 01:39:00",1339684,5.921,116.9,0.701,0.042,19.76,108.6382,21.4,22.36,13.09,0,110.8,13.23,22.22,78.9
"2009-10-19 01:39:30",1339685,6.201,115.9,0.189,0.122,19.56,108.636,21.39,22.36,13.25,0,110.8,13.23,22.22,77.9
"2009-10-19 01:40:00",1339686,6.365,115.1,0.491,0.038,19.49,108.6324,21.38,22.37,13.36,0,110.8,13.23,22.21,77.1
"2009-10-19 01:40:30",1339687,6.504,115.5,0.471,0.034,19.48,108.6283,21.37,22.36,13.36,0,110.8,13.23,22.20,77.5
"2009-10-19 01:41:00",1339688,6.541,116.4,0.856,0.037,19.49,108.6154,21.34,22.36,13.37,0,110.8,13.23,22.17,78.4
"2009-10-19 01:41:30",1339689,6.445,115.7,0.421,0.033,19.44,108.6149,21.34,22.36,13.38,0,110.8,13.23,22.16,77.7
"2009-10-19 01:42:00",1339690,6.371,115.1,1.151,0.072,19.45,108.613,21.33,22.35,13.37,0,110.8,13.23,22.16,77.1
"2009-10-19 01:42:30",1339691,6.346,114.7,1.246,0.029,19.5,108.6136,21.33,22.35,13.38,0,110.8,13.23,22.16,76.7
"2009-10-19 01:43:00",1339692,6.372,112.6,0.05,0.048,19.64,108.6158,21.34,22.33,13.38,0,110.8,13.23,22.17,74.6
"2009-10-19 01:43:30",1339693,6.365,113,0.522,0.033,19.63,108.5966,21.29,22.33,13.38,0,110.8,13.24,22.12,75.0
"2009-10-19 01:44:00",1339694,6.474,111.7,0.511,0.063,19.55,108.5865,21.26,22.32,13.37,0,110.8,13.23,22.09,73.7
"2009-10-19 01:44:30",1339695,6.633,110.6,0.612,0.105,19.48,108.5811,21.25,22.32,13.38,0,110.8,13.23,22.08,72.6
"2009-10-19 01:45:00",1339696,6.823,110,0.483,0.036,19.54,108.5793,21.25,22.3,13.37,0,110.8,13.23,22.07,72.0
"2009-10-19 01:45:30",1339697,6.83,110.8,0.269,0.056,19.6,108.582,21.25,22.29,13.35,0,110.8,13.23,22.08,72.8
"2009-10-19 01:46:00",1339698,6.678,111.7,0.897,0.055,19.53,108.5808,21.25,22.27,13.36,0,110.8,13.23,22.08,73.7
"2009-10-19 01:46:30",1339699,6.541,113,0.767,0.058,19.5,108.5789,21.25,22.27,13.39,0,110.8,13.23,22.07,75.0
"2009-10-19 01:47:00",1339700,6.592,114.3,0.764,0.054,19.48,108.562,21.2,22.25,13.41,0,110.8,13.24,22.03,76.3
"2009-10-19 01:47:30",1339701,6.533,112.7,0.661,0.058,19.55,108.5532,21.18,22.25,13.4,0,110.8,13.24,22.01,74.7